Location: Fours
(44.3167°N, 6.7000°E)
Time: 10:05:25
(UTC+00:00)

Cosmos 2360 - Pass Details

Date: 16 October 2021
Orbit: 844 x 857 km, 70.8° (Epoch: 02 December)

Event Time Altitude Azimuth Distance (km) Brightness Sun altitude
Rises 17:14:10 0° 190° (S) 3,390 7.6 -5.6°
Reaches altitude 10° 17:16:38 10° 186° (S) 2,460 6.8 -6.0°
Maximum altitude 17:22:08 56° 110° (ESE) 1,006 4.3 -7.0°
Drops below altitude 10° 17:27:41 10° 33° (NNE) 2,485 6.3 -8.0°
Sets 17:30:11 0° 30° (NNE) 3,427 7.0 -8.4°
